FW0803 Weather Reports


time (UTC)temp
C
wind
direction
speed
KPH
gust
KPH
rain 1hr
cm
rain 24hr
cm
rain mn
cm
humidity
%
barometer
mb
20260507125046 17 309 4.8 12.9 0.00 0.00 0.00 81 1016.9
20260507124539 17 316 4.8 14.5 0.00 0.00 0.00 81 1016.8
20260507123406 17 329 6.4 14.5 0.00 0.00 0.00 80 1016.9
20260507122853 17 307 4.8 11.3 0.00 0.00 0.00 80 1016.9
20260507122403 17 9 4.8 11.3 0.00 0.00 0.00 80 1016.8
20260507121908 17 333 4.8 11.3 0.00 0.00 0.00 80 1016.8
20260507121411 17 306 4.8 11.3 0.00 0.00 0.00 80 1016.8
20260507120257 17 294 4.8 11.3 0.00 0.00 0.00 81 1016.9
20260507115756 17 298 4.8 11.3 0.00 0.00 0.00 81 1016.9
20260507115257 17 294 4.8 11.3 0.00 0.00 0.00 81 1017.0
20260507114748 17 331 3.2 9.7 0.00 0.00 0.00 81 1017.0
20260507114248 17 311 4.8 9.7 0.00 0.00 0.00 81 1017.0
20260507113132 17 334 4.8 9.7 0.00 0.00 0.00 82 1017.2
20260507112637 17 313 4.8 11.3 0.00 0.00 0.00 82 1017.2
20260507112131 16 347 4.8 11.3 0.00 0.00 0.00 82 1017.3
20260507111628 16 325 4.8 11.3 0.00 0.00 0.00 83 1017.5
20260507111111 16 317 4.8 11.3 0.00 0.00 0.00 84 1017.6
20260507110614 16 342 4.8 8.0 0.00 0.00 0.00 84 1017.7
20260507110059 16 339 3.2 8.0 0.00 0.00 0.00 84 1017.8
20260507105545 16 305 3.2 8.0 0.00 0.00 0.00 84 1017.8
20260507105031 17 335 3.2 9.7 0.00 0.00 0.00 83 1017.9
20260507104520 17 338 3.2 9.7 0.00 0.00 0.00 83 1018.0
20260507104014 17 330 3.2 9.7 0.00 0.00 0.00 83 1018.1
20260507103522 17 314 3.2 9.7 0.00 0.00 0.00 83 1018.1
20260507103020 17 292 3.2 6.4 0.00 0.00 0.00 83 1018.1
20260507101916 16 315 3.2 9.7 0.00 0.00 0.00 85 1018.2
20260507101421 17 323 3.2 9.7 0.00 0.00 0.00 84 1018.2
20260507100305 17 305 4.8 6.4 0.00 0.00 0.00 84 1018.3
20260507095811 17 290 3.2 6.4 0.00 0.00 0.00 84 1018.4
20260507095256 17 298 3.2 9.7 0.00 0.00 0.00 83 1018.4
20260507094754 17 323 3.2 9.7 0.00 0.00 0.00 84 1018.3
20260507094246 17 317 3.2 9.7 0.00 0.00 0.00 85 1018.3
20260507093740 17 290 3.2 9.7 0.00 0.00 0.00 86 1018.3
20260507093248 17 9 3.2 6.4 0.00 0.00 0.00 84 1018.2
20260507092747 17 347 3.2 6.4 0.00 0.00 0.00 84 1018.3
20260507092255 17 334 3.2 6.4 0.00 0.00 0.00 84 1018.3
20260507091805 17 329 1.6 6.4 0.00 0.00 0.00 84 1018.2
20260507091312 17 347 1.6 6.4 0.00 0.00 0.00 84 1018.2
20260507090809 17 323 1.6 4.8 0.00 0.00 0.00 84 1018.3
20260507085648 17 344 3.2 6.4 0.00 0.00 0.00 85 1018.3
20260507085130 17 312 3.2 6.4 0.00 0.00 0.00 85 1018.3
20260507084621 17 0 1.6 4.8 0.00 0.00 0.00 84 1018.3
20260507084114 17 328 1.6 4.8 0.00 0.00 0.00 85 1018.3
20260507083003 17 347 1.6 4.8 0.00 0.00 0.00 85 1018.4
20260507082508 17 323 1.6 6.4 0.00 0.00 0.00 86 1018.4
20260507082015 17 325 1.6 6.4 0.00 0.00 0.00 86 1018.3
20260507081517 17 336 1.6 6.4 0.00 0.00 0.00 86 1018.4
20260507081027 17 9 1.6 6.4 0.00 0.00 0.00 86 1018.4
20260507080517 17 341 1.6 4.8 0.00 0.00 0.00 86 1018.4
20260507080002 17 20 1.6 4.8 0.00 0.00 0.00 87 1018.4
20260507075507 17 15 1.6 4.8 0.00 0.00 0.00 88 1018.3
20260507075005 17 341 1.6 4.8 0.00 0.00 0.00 89 1018.4
20260507074508 17 344 1.6 4.8 0.00 0.00 0.00 91 1018.3
20260507074010 17 329 1.6 4.8 0.00 0.00 0.00 91 1018.2
20260507073519 17 342 1.6 4.8 0.00 0.00 0.00 92 1018.2
20260507073005 17 306 1.6 4.8 0.00 0.00 0.00 92 1018.2
20260507072514 17 313 3.2 4.8 0.00 0.00 0.00 92 1018.1
20260507071331 17 319 1.6 3.2 0.00 0.00 0.00 95 1018.0
20260507070217 18 304 0.0 4.8 0.00 0.00 0.00 95 1017.7
20260507065709 18 282 0.0 4.8 0.00 0.00 0.00 96 1017.8
20260507065155 18 266 1.6 4.8 0.00 0.00 0.00 96 1017.4
20260507064055 18 330 0.0 3.2 0.00 0.00 0.00 97 1017.3
20260507063559 19 9 0.0 3.2 0.00 0.00 0.00 97 1017.2
20260507063048 20 309 0.0 1.6 0.00 0.00 0.00 97 1017.1
20260507062540 20 9 0.0 1.6 0.00 0.00 0.00 97 1017.2
20260507062047 20 342 0.0 3.2 0.00 0.00 0.00 97 1017.0
20260507061554 20 341 0.0 3.2 0.00 0.05 0.00 97 1017.0
20260507060422 20 239 0.0 3.2 0.00 0.05 0.00 97 1016.9
20260507055919 20 266 0.0 3.2 0.00 0.05 0.00 96 1016.9
20260507055422 20 334 0.0 3.2 0.00 0.05 0.00 96 1016.7
20260507054923 20 325 0.0 1.6 0.00 0.05 0.00 96 1016.6
20260507053759 20 338 0.0 1.6 0.00 0.05 0.00 96 1016.4
20260507053240 20 9 0.0 0.0 0.00 0.05 0.00 96 1016.3
20260507052740 21 51 0.0 1.6 0.00 0.05 0.00 96 1016.3
20260507052222 21 51 0.0 0.0 0.00 0.05 0.00 96 1016.3
20260507051045 21 93 0.0 0.0 0.00 0.05 0.00 96 1016.2
20260507050552 21 178 0.0 3.2 0.00 0.05 0.00 96 1016.1
20260507045409 21 85 0.0 8.0 0.00 0.05 0.00 95 1016.1
20260507044914 21 9 1.6 8.0 0.00 0.05 0.00 95 1016.0
20260507044408 21 93 0.0 8.0 0.00 0.05 0.00 95 1015.8
20260507043915 21 93 0.0 3.2 0.00 0.05 0.00 95 1015.8
20260507043419 21 266 0.0 0.0 0.00 0.05 0.00 95 1015.6
20260507042920 21 9 0.0 3.2 0.00 0.05 0.00 95 1015.6
20260507042404 21 9 0.0 4.8 0.00 0.05 0.00 95 1015.6
20260507041905 21 51 0.0 4.8 0.00 0.05 0.00 95 1015.6
20260507041346 21 137 0.0 4.8 0.00 0.05 0.00 94 1015.6
20260507040846 21 93 0.0 4.8 0.00 0.05 0.00 94 1015.5
20260507040348 21 93 0.0 4.8 0.00 0.05 0.00 94 1015.5
20260507035849 21 93 0.0 4.8 0.00 0.05 0.00 94 1015.6
20260507035337 21 93 0.0 8.0 0.00 0.05 0.00 94 1015.6
20260507034231 22 108 0.0 8.0 0.00 0.05 0.00 93 1015.6
20260507033716 22 108 0.0 8.0 0.00 0.05 0.00 93 1015.5
20260507033211 22 93 0.0 8.0 0.00 0.05 0.00 93 1015.6
20260507032703 22 93 0.0 8.0 0.00 0.05 0.00 93 1015.4
20260507032212 22 325 3.2 12.9 0.00 0.05 0.00 93 1015.4
20260507031712 22 82 6.4 12.9 0.00 0.05 0.00 92 1015.4
20260507030535 22 84 3.2 12.9 0.00 0.05 0.00 91 1015.4
20260507030018 22 97 0.0 11.3 0.00 0.05 0.00 92 1015.3
20260507025510 22 9 0.0 9.7 0.00 0.05 0.00 91 1015.3
20260507025017 22 9 0.0 8.0 0.00 0.05 0.00 91 1015.3
20260507024510 22 334 0.0 8.0 0.00 0.05 0.00 91 1015.2
20260507023958 22 88 1.6 8.0 0.00 0.05 0.00 91 1015.1
20260507023503 22 101 3.2 8.0 0.00 0.05 0.00 93 1015.2
20260507023012 22 93 4.8 8.0 0.00 0.05 0.00 92 1015.2
20260507022511 22 99 3.2 11.3 0.00 0.05 0.00 91 1015.3
20260507022006 22 122 4.8 11.3 0.00 0.05 0.00 90 1015.3
20260507021509 22 86 4.8 12.9 0.00 0.05 0.00 90 1015.3
20260507021004 23 103 4.8 12.9 0.00 0.05 0.00 89 1015.2
20260507020500 23 137 4.8 12.9 0.00 0.05 0.00 88 1015.3
20260507015946 23 93 1.6 12.9 0.00 0.05 0.00 87 1015.2
20260507015434 23 51 3.2 12.9 0.00 0.05 0.00 86 1015.2
20260507014927 23 93 4.8 14.5 0.00 0.05 0.00 85 1015.3
20260507014410 23 86 3.2 14.5 0.00 0.05 0.00 86 1015.4
20260507013859 23 93 3.2 17.7 0.00 0.05 0.00 84 1015.2
20260507013352 24 9 1.6 17.7 0.00 0.05 0.00 82 1015.1
20260507012846 24 102 3.2 17.7 0.00 0.05 0.00 82 1015.1
20260507012338 25 93 3.2 17.7 0.00 0.05 0.00 81 1015.1
20260507011215 25 9 0.0 8.0 0.00 0.05 0.00 79 1015.2
20260507010707 25 68 0.0 8.0 0.00 0.05 0.00 78 1015.2
20260507005543 25 9 0.0 16.1 0.00 0.05 0.00 75 1015.3
20260507005038 25 77 3.2 16.1 0.00 0.05 0.00 78 1015.3
20260507004522 24 93 8.0 17.7 0.00 0.05 0.00 76 1015.2
20260507003404 25 92 6.4 19.3 0.00 0.05 0.00 80 1015.2
20260507002856 25 111 9.7 19.3 0.00 0.05 0.00 82 1015.4
20260507002343 25 92 9.7 19.3 0.00 0.05 0.00 81 1015.3
20260507001823 25 309 4.8 19.3 0.00 0.05 0.00 81 1015.3
20260507001318 25 93 4.8 14.5 0.00 0.05 0.00 80 1015.3
20260507000814 25 108 6.4 17.7 0.00 0.05 0.00 79 1015.3
20260507000306 25 341 6.4 17.7 0.00 0.05 0.00 81 1015.3
20260506235751 25 77 4.8 17.7 0.00 0.05 0.00 79 1015.3
20260506235300 25 93 3.2 17.7 0.00 0.05 0.00 80 1015.3
20260506234803 25 9 3.2 19.3 0.00 0.05 0.00 80 1015.4
20260506234248 25 95 4.8 19.3 0.00 0.05 0.00 80 1015.5
20260506233730 25 105 6.4 19.3 0.00 0.05 0.00 79 1015.7
20260506232554 25 98 4.8 17.7 0.00 0.05 0.00 80 1016.0
20260506232039 25 105 6.4 17.7 0.00 0.05 0.00 82 1015.9
20260506231532 25 90 3.2 17.7 0.00 0.05 0.00 79 1016.0
20260506231012 25 0 3.2 16.1 0.00 0.05 0.00 80 1016.1
20260506230459 25 93 4.8 17.7 0.00 0.05 0.00 81 1016.1
20260506230002 25 93 1.6 17.7 0.00 0.05 0.00 82 1016.3
20260506225459 25 88 4.8 17.7 0.00 0.05 0.00 83 1016.2
20260506225006 25 319 6.4 17.7 0.00 0.05 0.00 80 1016.1
20260506224458 25 110 6.4 16.1 0.00 0.05 0.00 81 1016.0
20260506223938 25 108 6.4 16.1 0.00 0.05 0.00 78 1016.0
20260506223446 25 51 4.8 16.1 0.00 0.05 0.00 76 1016.3
20260506222946 25 93 3.2 16.1 0.00 0.05 0.00 76 1016.2
20260506222436 25 325 3.2 16.1 0.00 0.05 0.00 75 1016.3
20260506221926 25 103 6.4 16.1 0.00 0.05 0.00 77 1016.5
20260506221421 25 92 6.4 19.3 0.00 0.05 0.00 80 1016.3
20260506220909 24 9 8.0 19.3 0.00 0.05 0.00 79 1016.3
20260506215753 25 88 6.4 19.3 0.00 0.05 0.00 80 1016.7
20260506215240 25 93 6.4 17.7 0.00 0.05 0.00 80 1016.8
20260506214748 24 83 6.4 16.1 0.00 0.05 0.00 78 1016.9
20260506214246 25 92 3.2 16.1 0.00 0.05 0.00 77 1016.8
20260506213752 25 61 4.8 16.1 0.00 0.05 0.00 80 1016.9
20260506213236 24 93 8.0 19.3 0.00 0.05 0.00 81 1017.0
20260506212117 25 93 8.0 19.3 0.00 0.05 0.00 81 1016.9
20260506211625 25 101 9.7 19.3 0.00 0.05 0.00 80 1016.8
20260506211128 24 88 11.3 22.5 0.00 0.05 0.00 79 1016.9
20260506210619 24 93 12.9 22.5 0.00 0.05 0.00 75 1016.8
20260506210116 25 110 11.3 22.5 0.00 0.05 0.00 73 1016.8
20260506205622 25 90 8.0 22.5 0.00 0.05 0.00 71 1016.8
20260506205123 25 153 8.0 19.3 0.00 0.05 0.00 74 1017.0
20260506204630 24 92 8.0 19.3 0.00 0.05 0.00 76 1017.2
20260506204124 25 99 9.7 19.3 0.00 0.05 0.00 77 1017.2
20260506203617 25 88 11.3 19.3 0.00 0.05 0.00 76 1017.1
20260506203116 25 93 9.7 19.3 0.00 0.05 0.00 75 1017.0
20260506202625 25 90 9.7 19.3 0.00 0.05 0.00 74 1017.0
20260506202134 25 93 9.7 19.3 0.00 0.05 0.00 76 1017.0
20260506201635 25 93 9.7 19.3 0.00 0.05 0.00 76 1016.8
20260506201122 25 92 6.4 14.5 0.00 0.05 0.00 70 1016.8
20260506200611 25 93 6.4 14.5 0.00 0.05 0.00 70 1016.9
20260506200059 25 175 6.4 14.5 0.00 0.05 0.00 69 1016.9
20260506195609 25 92 4.8 14.5 0.00 0.05 0.00 71 1016.8
20260506195116 25 93 3.2 14.5 0.00 0.05 0.00 71 1016.9
20260506194608 25 93 3.2 14.5 0.00 0.05 0.00 72 1017.0
20260506194106 25 129 4.8 14.5 0.00 0.05 0.00 71 1017.0
20260506193549 25 96 3.2 14.5 0.00 0.05 0.00 73 1017.2
20260506192443 24 171 4.8 12.9 0.00 0.05 0.00 71 1017.1
20260506191949 25 101 6.4 12.9 0.00 0.05 0.00 75 1017.1
20260506191455 25 90 3.2 12.9 0.00 0.05 0.00 75 1017.0
20260506190949 24 128 1.6 9.7 0.00 0.05 0.00 61 1017.0
20260506190441 24 205 3.2 9.7 0.00 0.05 0.00 62 1017.0
20260506185943 24 221 3.2 9.7 0.00 0.05 0.00 58 1016.9
20260506185427 24 147 4.8 8.0 0.00 0.05 0.00 63 1017.1
20260506183706 23 188 3.2 9.7 0.00 0.08 0.00 74 1017.1
20260506183155 23 194 4.8 9.7 0.00 0.08 0.00 73 1017.0
20260506182655 23 184 3.2 9.7 0.00 0.08 0.00 75 1017.1
20260506182148 22 184 3.2 6.4 0.00 0.08 0.00 83 1017.0
20260506181657 22 232 1.6 6.4 0.00 0.08 0.00 86 1017.0
20260506181139 22 226 1.6 4.8 0.00 0.08 0.00 86 1017.0
20260506180647 22 227 1.6 4.8 0.00 0.08 0.00 87 1016.9
20260506180147 22 80 1.6 9.7 0.00 0.08 0.00 86 1017.0
20260506175657 22 105 1.6 9.7 0.00 0.08 0.00 87 1016.8
20260506175155 22 51 1.6 9.7 0.00 0.08 0.00 87 1016.9
20260506174643 22 90 0.0 9.7 0.00 0.08 0.00 88 1016.8
20260506174144 21 129 0.0 4.8 0.00 0.08 0.00 87 1016.7
20260506173627 21 124 0.0 4.8 0.00 0.08 0.00 89 1016.5
20260506173111 20 93 1.6 4.8 0.00 0.08 0.00 91 1016.4
20260506172556 20 294 3.2 4.8 0.00 0.08 0.00 90 1016.5
20260506171408 19 325 3.2 6.4 0.00 0.08 0.00 90 1016.3
20260506170911 19 328 3.2 6.4 0.00 0.08 0.00 90 1016.3
20260506170353 19 311 4.8 6.4 0.00 0.08 0.00 91 1016.2
20260506165847 18 301 4.8 6.4 0.00 0.08 0.00 91 1016.3
20260506164107 17 305 4.8 6.4 0.00 0.08 0.00 92 1016.1
20260506163604 17 340 4.8 6.4 0.00 0.08 0.00 93 1016.1
20260506163105 17 294 4.8 6.4 0.00 0.08 0.00 93 1016.1
20260506162547 17 317 3.2 9.7 0.00 0.08 0.00 93 1015.9
20260506162039 17 328 4.8 9.7 0.00 0.08 0.00 93 1015.8
20260506161542 17 319 4.8 9.7 0.00 0.08 0.00 93 1015.8
20260506161049 17 311 4.8 8.0 0.00 0.08 0.00 93 1015.7
20260506160551 17 279 3.2 8.0 0.00 0.08 0.00 93 1015.8
20260506160059 17 341 3.2 8.0 0.00 0.08 0.00 93 1015.6
20260506155601 17 329 3.2 8.0 0.00 0.08 0.00 94 1015.6
20260506153824 17 329 3.2 8.0 0.00 0.08 0.00 92 1015.3
20260506153324 17 301 1.6 6.4 0.00 0.08 0.00 93 1015.3
20260506152825 17 317 1.6 4.8 0.00 0.08 0.00 93 1015.3
20260506152320 17 332 1.6 9.7 0.00 0.08 0.00 94 1015.3
20260506151813 17 340 1.6 9.7 0.00 0.08 0.00 93 1015.3
20260506151319 17 87 3.2 9.7 0.00 0.08 0.00 93 1015.3
20260506150801 17 304 4.8 9.7 0.00 0.08 0.00 94 1015.3
20260506150244 17 333 3.2 6.4 0.00 0.08 0.00 94 1015.2
20260506145750 17 9 4.8 6.4 0.00 0.08 0.00 94 1015.2
20260506145258 17 329 4.8 9.7 0.00 0.08 0.00 94 1015.3
20260506144806 17 341 4.8 9.7 0.00 0.13 0.00 93 1015.3
20260506144254 18 328 4.8 9.7 0.00 0.13 0.00 93 1015.3
20260506143755 18 294 4.8 9.7 0.00 0.15 0.00 93 1015.2
20260506143256 18 319 3.2 6.4 0.00 0.15 0.00 93 1015.2
20260506142741 18 325 1.6 4.8 0.00 0.15 0.00 93 1015.2
20260506142239 18 288 1.6 4.8 0.00 0.20 0.00 94 1015.2
20260506141747 18 265 1.6 11.3 0.00 0.20 0.00 95 1015.3
20260506141241 18 273 3.2 11.3 0.00 0.23 0.00 95 1015.3
20260506140725 18 239 4.8 11.3 0.00 0.23 0.00 95 1015.2
20260506140235 18 219 4.8 11.3 0.00 0.23 0.00 95 1015.2
20260506135719 17 215 4.8 8.0 0.00 0.23 0.00 96 1015.3
20260506134604 18 207 0.0 1.6 0.00 0.30 0.00 95 1015.4
20260506134059 18 0 0.0 4.8 0.00 0.33 0.00 96 1015.3
20260506132308 17 246 0.0 4.8 0.00 0.46 0.00 96 1015.4
20260506131755 17 309 0.0 3.2 0.00 0.46 0.00 97 1015.4
20260506131238 17 286 0.0 3.2 0.00 0.46 0.00 97 1015.2
20260506130120 17 342 0.0 3.2 0.00 0.53 0.00 97 1015.3
20260506125611 17 325 0.0 1.6 0.00 0.56 0.00 96 1015.4